Location: Brachbach
(49.1847°N, 9.7240°E)
Time: 20:39:18
(UTC+00:00)

Cosmos 2219 Rocket - Pass Details

Date: 22 August 2024
Orbit: 826 x 846 km, 71.0° (Epoch: 09 September)

Event Time Altitude Azimuth Distance (km) Brightness Sun altitude
Exits shadow 20:36:50 11° 77° (ENE) 2,396 4.3 -19.2°
Drops below altitude 10° 20:37:24 10° 71° (ENE) 2,476 4.4 -19.3°
Sets 20:41:22 0° 44° (NE) 3,418 5.4 -19.7°
